Laughlin Air Force Base Del Rio US
ICAO: KDLF
IATA: DLF
Category: Large
Scheduled Services: No

Elevation: 1082 ft
TransAlt. 18000 ft.

Airport Communications:
DEL RIO APP:119.6
ATIS:114.4
CLNC DEL:120.5
DEL RIO DEP:119.6
GND:138.75
PMSV METRO:35.46
PTD:37.22
TWR:125.2

KDLF Zoom In..

If you have problems with the map follow the link
https://www.worldairports.se/pages/airport.php?
ICAO=KDLF

Runways:

(A) RW 13C length 8852 ft width 150 ft
ILS 110.30 / hdg 128

(B) RW 13L length 8315 ft width 150 ft
---- / hdg 128

(C) RW 13R length 6571 ft width 150 ft
---- / hdg 128

(D) RW 31C length 8852 ft width 150 ft
ILS 108.90 / hdg 308

(E) RW 31L length 6571 ft width 150 ft
---- / hdg 308

(F) RW 31R length 8315 ft width 150 ft
---- / hdg 308

Location; KDLF
Day. 08 / Time. 12.56 Zulu
* Altimeter: 30.03
* Temperature: 10° c. 50°f.
* Wind from: 100° Speed 07 kn.
Dewpoint: 07° c.
Visibility: 10 Statute Miles.
Clouds: Clear (automated report).

KDLF 081256Z AUTO 10007KT 10SM CLR 10/07 A3003 RMK AO2 SLPNO T00960069 $


Wind From 100°
Speed 07 kn.

 
 
jpsmedia worldairports.se 2019   terms of use